Temp
68 69 69 68 68 69 72 74 74 74 75 75 75 75 74 75 75 75 73 74 70 68 67 67 67 69 74 70 73 74 74 74 74 74 74 74 73 73 73 72 72 71 71 71 71 72 72 72 72 73 73 73 73 66 65 64 65 65 64 66 67 65
68 68 68 69 69 69 71 72 68 69 70 72 74 74 72 70 74 69 73 69 67 70 66 66 67 71 67 70 70 74 74 74 73 73 73 74 73 73 72 72 72 71 71 71 72 65 64 68 72 73 72 73 68 65 65 65 64 65 65 64 66 68
68 68 68 68 69 70 69 68 68 67 70 73 72 72 69 69 68 68 69 68 67 64 65 65 66 69 69 72 70 74 74 74 74 74 73 73 73 73 72 72 72 72 71 71 65 63 62 61 63 72 70 66 64 65 65 65 64 64 64 64 64 72
68 67 68 68 68 68 67 67 67 67 68 68 67 68 68 67 67 67 68 67 65 66 64 63 71 72 71 68 67 72 74 74 74 73 74 69 71 72 73 72 72 71 66 66 64 64 64 62 62 61 61 63 64 65 65 65 64 64 64 67 65 73
68 67 67 68 69 67 66 66 66 66 66 66 66 66 65 65 65 66 66 65 65 66 64 63 65 66 67 66 65 65 65 66 64 65 69 63 64 66 68 67 66 66 65 66 65 64 64 63 63 63 63 63 65 64 65 65 64 64 64 66 66 73
68 67 67 67 67 69 69 65 65 66 65 65 65 65 65 65 65 65 65 66 66 64 64 64 63 64 66 65 66 65 64 64 63 64 68 64 64 65 66 67 67 66 65 66 65 65 64 65 63 63 63 64 64 64 64 63 64 64 64 65 67 73
67 67 66 66 67 67 66 65 65 65 65 64 65 65 65 66 65 65 65 67 65 65 65 63 63 64 66 65 65 65 64 63 63 63 64 64 63 63 65 66 66 66 65 66 66 66 65 65 64 65 64 65 65 66 64 64 63 63 64 64 67 73
67 66 65 66 67 66 65 65 67 69 66 67 66 64 64 65 66 66 67 66 66 65 65 64 63 64 65 65 65 65 65 65 64 63 63 63 64 62 64 65 66 67 67 67 67 67 66 66 66 66 67 65 65 66 65 64 64 64 63 64 66 72
67 67 66 66 66 65 66 65 66 65 64 69 64 64 64 66 66 66 67 67 67 64 65 64 63 63 64 64 64 65 65 65 64 64 63 63 64 63 62 64 65 66 67 67 65 66 66 67 66 66 66 66 65 65 65 64 63 63 63 63 64 68
67 66 66 66 66 66 66 65 65 65 64 68 64 64 65 65 65 66 66 66 67 66 66 65 64 63 63 64 64 64 65 64 64 64 64 64 63 63 63 63 63 64 65 65 66 66 66 65 66 66 65 65 64 65 65 64 64 64 64 63 64 67
66 68 66 66 65 65 66 65 65 65 64 65 66 65 64 64 66 66 67 66 67 67 67 66 64 63 65 64 63 64 64 64 65 64 64 64 63 64 63 63 64 64 64 64 64 64 66 65 66 68 67 67 65 64 64 64 64 64 64 64 64 64
66 67 67 65 67 66 66 65 66 65 65 65 66 65 64 65 67 67 67 66 66 67 67 66 64 63 65 65 64 64 63 63 64 63 64 64 64 64 64 63 64 64 64 64 63 63 64 65 66 67 68 67 67 65 64 64 64 64 65 64 64 64
66 66 65 65 65 65 65 66 66 65 66 68 66 65 64 65 66 66 66 66 66 66 67 66 65 65 66 64 64 63 63 63 64 64 64 64 64 64 64 64 63 64 63 63 63 63 64 63 64 66 67 66 65 66 66 64 64 65 65 65 64 64
66 65 66 65 65 65 65 65 66 65 67 67 67 67 66 64 65 66 65 64 65 66 67 66 65 64 63 63 64 64 64 64 64 65 65 64 63 63 63 63 63 63 65 63 63 63 62 63 64 63 64 65 64 66 66 65 65 65 64 64 63 63
68 65 66 65 65 64 66 66 65 65 66 66 67 66 66 66 65 65 65 63 63 64 65 65 65 64 63 63 62 63 63 63 63 65 65 65 65 64 63 63 63 63 62 62 63 64 63 63 63 64 64 64 64 63 64 64 65 65 64 64 64 63
65 65 64 65 64 65 65 64 64 68 65 65 65 65 65 65 66 66 66 66 65 65 64 64 64 64 64 63 63 63 63 63 63 64 64 64 64 63 63 63 63 62 61 62 63 63 63 63 63 63 63 63 63 64 63 64 64 64 64 63 64 64
63 63 64 64 64 65 65 63 64 64 64 65 65 65 65 65 65 65 64 65 66 67 67 67 67 67 66 65 65 64 64 64 64 64 63 63 63 63 62 63 61 62 61 62 61 62 62 62 63 63 63 62 62 62 62 63 64 63 64 63 63 63
65 65 64 64 64 64 65 64 64 63 66 65 65 65 65 64 64 64 63 63 64 65 67 68 68 68 67 67 66 66 65 64 64 64 64 63 63 63 63 63 63 62 62 61 61 61 61 62 63 63 63 62 60 61 61 62 63 65 63 62 63 62
65 64 64 65 67 66 65 63 63 63 63 64 63 63 63 63 63 63 62 63 64 64 65 66 66 66 66 65 66 66 65 65 65 64 64 64 65 64 64 64 63 63 62 63 62 61 61 61 62 62 62 63 62 62 62 62 63 63 63 63 63 64
66 65 65 65 64 64 65 63 63 62 62 63 62 63 63 63 62 62 63 63 63 62 63 64 64 65 65 66 65 66 66 65 64 64 64 65 65 65 64 64 63 63 63 63 63 63 61 60 60 60 61 61 61 62 61 62 63 62 62 63 63 64
65 66 66 65 64 63 63 62 61 62 61 61 63 64 63 62 62 63 63 62 62 62 62 62 64 63 63 65 66 66 66 65 63 64 64 65 65 65 65 65 64 64 63 63 63 63 62 62 61 60 59 59 59 60 62 62 62 62 62 63 63 63
65 65 65 65 65 64 63 64 63 62 62 61 61 61 62 63 63 63 63 62 62 62 62 62 64 63 63 63 63 63 64 63 64 64 64 64 64 65 65 64 65 64 64 63 63 63 63 62 60 59 58 57 57 58 60 62 61 62 62 62 63 63
65 65 65 66 66 65 65 66 63 62 62 62 62 62 63 62 64 63 62 61 62 61 62 62 62 63 63 63 63 63 63 62 62 63 63 63 63 63 64 64 64 63 63 63 63 64 62 63 61 59 59 58 57 56 57 58 60 61 62 62 62 63
65 65 65 66 66 66 67 64 64 63 62 62 63 65 63 63 63 62 63 62 62 61 62 61 62 62 63 62 62 63 63 63 63 64 63 63 63 63 63 63 63 63 63 61 63 63 64 63 62 60 57 56 57 57 55 56 58 60 62 62 62 62
64 64 65 65 65 66 66 65 65 64 64 63 63 63 63 62 63 64 64 63 63 63 63 62 63 62 63 63 63 64 64 64 64 63 63 63 63 63 63 64 64 63 63 62 62 63 64 64 63 63 61 57 56 55 56 57 54 56 60 61 62 62
63 63 64 65 65 64 63 63 63 62 60 60 59 60 60 60 60 61 62 62 64 64 64 63 62 63 63 64 63 63 64 64 63 63 62 63 63 63 63 63 64 64 63 63 62 62 62 63 63 63 63 62 62 58 58 57 57 54 58 61 62 62
61 61 62 64 65 65 63 63 63 62 61 60 59 59 61 61 61 61 61 62 62 63 64 64 64 63 63 64 63 63 63 63 63 62 63 62 62 62 62 63 63 62 62 63 62 60 60 61 62 63 63 62 63 62 61 57 56 58 55 57 60 61
59 60 60 61 62 64 63 63 62 62 62 61 61 60 61 61 61 62 61 61 62 62 63 63 63 63 64 64 64 64 63 62 62 63 62 62 62 62 62 62 62 63 63 63 62 61 61 61 60 61 63 62 62 62 62 61 61 58 57 55 57 61
59 59 59 61 61 61 63 63 62 61 60 61 62 62 62 62 62 61 60 61 61 62 62 62 62 63 63 63 64 63 64 63 63 63 64 63 63 63 62 62 62 63 63 63 63 63 62 61 61 61 61 61 61 61 61 61 61 60 57 55 56 57
58 59 59 59 60 60 61 62 61 61 60 60 61 61 61 60 60 61 60 60 61 61 61 61 62 62 62 63 63 63 63 63 63 63 64 64 64 64 63 63 64 63 64 63 63 63 62 62 62 62 62 61 60 60 60 59 59 59 58 58 56 56
56 57 58 59 61 61 62 62 61 60 60 59 60 59 59 58 59 59 59 59 60 61 61 61 61 61 61 62 62 63 63 63 63 63 63 63 63 63 64 64 64 64 64 63 63 63 62 62 62 62 62 61 60 60 59 58 59 59 58 57 56 56
55 55 56 57 58 58 60 61 61 60 60 60 59 59 58 57 58 58 58 58 59 60 60 61 61 61 61 61 61 61 62 61 60 60 60 61 62 62 63 64 64 64 63 64 64 63 62 62 62 62 62 62 61 62 61 60 61 60 59 59 58 57
54 54 54 55 55 55 57 58 59 60 60 60 59 58 58 58 58 58 57 57 57 57 59 59 60 60 61 60 60 59 59 58 57 58 59 60 60 62 62 62 63 63 63 63 63 63 62 62 63 62 61 62 62 62 61 62 62 61 61 60 59 57
53 53 53 53 53 54 54 56 58 59 59 60 59 58 58 58 58 58 57 56 56 57 57 58 59 59 60 60 59 58 58 57 57 57 57 58 58 59 60 61 62 62 62 63 63 63 63 63 63 63 63 62 62 62 62 62 62 61 60 59 58 58
53 53 53 52 52 53 54 55 56 58 58 58 57 56 56 58 57 57 56 56 56 57 57 58 58 59 60 59 57 57 57 56 55 54 54 54 54 55 56 57 60 62 62 63 63 63 63 63 62 62 62 62 62 62 62 62 62 62 62 60 60 59
52 52 52 53 52 52 52 53 53 54 55 56 56 55 54 56 56 56 56 55 55 56 56 57 58 59 59 58 56 55 56 55 55 54 53 53 52 52 52 54 56 58 59 62 62 62 62 62 62 62 62 62 62 61 63 62 62 62 62 62 60 60
52 53 53 52 52 52 53 53 52 53 53 55 56 55 54 54 54 56 55 55 54 55 56 57 56 58 57 57 55 55 53 53 53 53 53 52 51 51 50 51 52 54 55 56 57 59 61 62 62 62 62 62 61 62 62 63 63 62 62 62 61 61
MSLP
1016.05 1016.09 1016.13 1016.17 1016.29 1016.37 1016.41 1016.49 1016.61 1016.69 1016.77 1016.81 1016.89 1016.97 1017.09 1017.17 1017.29 1017.37 1017.45 1017.57 1017.73 1017.81 1017.89 1017.97 1018.01 1017.97 1017.97 1018.01 1018.01 1018.01 1018.01 1018.05 1018.09 1018.09 1018.09 1018.05 1018.05 1018.01 1017.97 1018.01 1018.05 1018.05 1018.01 1017.93 1017.93 1017.93 1018.01 1018.21 1018.29 1018.29 1018.29 1018.25 1018.41 1018.65 1018.77 1018.85 1018.93 1018.93 1018.89 1018.81 1018.81 1018.85
1016.25 1016.25 1016.29 1016.37 1016.45 1016.53 1016.57 1016.69 1016.81 1016.85 1016.89 1016.93 1016.97 1017.09 1017.21 1017.33 1017.41 1017.57 1017.61 1017.77 1017.89 1017.97 1018.09 1018.13 1018.13 1018.09 1018.17 1018.13 1018.17 1018.13 1018.17 1018.21 1018.25 1018.21 1018.21 1018.21 1018.21 1018.17 1018.13 1018.13 1018.17 1018.17 1018.13 1018.09 1018.05 1018.13 1018.21 1018.45 1018.37 1018.37 1018.41 1018.37 1018.49 1018.69 1018.89 1019.01 1019.09 1019.13 1019.09 1019.01 1018.93 1018.89
1016.41 1016.41 1016.45 1016.49 1016.61 1016.69 1016.81 1016.89 1016.93 1016.97 1017.01 1017.05 1017.13 1017.21 1017.37 1017.49 1017.61 1017.73 1017.85 1017.93 1018.01 1018.09 1018.17 1018.21 1018.21 1018.13 1018.17 1018.21 1018.25 1018.21 1018.21 1018.29 1018.33 1018.33 1018.33 1018.33 1018.33 1018.29 1018.25 1018.21 1018.25 1018.25 1018.29 1018.25 1018.29 1018.33 1018.37 1018.73 1018.69 1018.49 1018.53 1018.65 1018.73 1018.81 1018.89 1019.05 1019.17 1019.21 1019.21 1019.13 1019.05 1018.89
1016.53 1016.53 1016.53 1016.65 1016.77 1016.89 1016.97 1016.93 1016.97 1017.05 1017.17 1017.29 1017.37 1017.45 1017.57 1017.69 1017.77 1017.89 1018.01 1018.09 1018.13 1018.13 1018.21 1018.25 1018.13 1018.13 1018.17 1018.25 1018.29 1018.29 1018.29 1018.33 1018.33 1018.37 1018.37 1018.41 1018.41 1018.37 1018.33 1018.29 1018.29 1018.33 1018.37 1018.41 1018.45 1018.41 1018.45 1018.81 1018.89 1018.81 1018.77 1018.85 1018.93 1018.89 1018.93 1019.01 1019.09 1019.17 1019.21 1019.17 1019.09 1018.93
1016.53 1016.53 1016.61 1016.77 1016.93 1017.09 1017.05 1017.01 1017.05 1017.17 1017.33 1017.45 1017.57 1017.61 1017.73 1017.85 1017.97 1018.05 1018.13 1018.21 1018.25 1018.29 1018.33 1018.29 1018.25 1018.29 1018.37 1018.37 1018.41 1018.45 1018.49 1018.53 1018.53 1018.57 1018.53 1018.61 1018.57 1018.53 1018.49 1018.53 1018.49 1018.41 1018.45 1018.49 1018.45 1018.45 1018.49 1018.61 1019.01 1019.01 1018.97 1019.01 1019.05 1019.09 1019.01 1019.01 1019.09 1019.17 1019.21 1019.17 1019.13 1018.97
1016.57 1016.57 1016.69 1016.89 1017.09 1017.13 1017.09 1017.21 1017.25 1017.33 1017.45 1017.57 1017.65 1017.73 1017.85 1018.01 1018.13 1018.21 1018.21 1018.29 1018.37 1018.49 1018.57 1018.53 1018.49 1018.45 1018.45 1018.49 1018.53 1018.61 1018.65 1018.69 1018.73 1018.77 1018.65 1018.73 1018.65 1018.65 1018.69 1018.65 1018.65 1018.61 1018.49 1018.45 1018.49 1018.49 1018.49 1018.49 1018.85 1019.13 1019.09 1019.09 1019.17 1019.21 1019.25 1019.25 1019.17 1019.17 1019.17 1019.21 1019.17 1018.97
1016.69 1016.73 1016.85 1017.01 1017.17 1017.21 1017.33 1017.29 1017.33 1017.37 1017.53 1017.73 1017.77 1017.85 1018.01 1018.13 1018.25 1018.29 1018.33 1018.33 1018.49 1018.61 1018.69 1018.73 1018.73 1018.73 1018.61 1018.53 1018.61 1018.65 1018.69 1018.73 1018.81 1018.85 1018.81 1018.81 1018.77 1018.73 1018.73 1018.77 1018.73 1018.73 1018.61 1018.57 1018.53 1018.53 1018.53 1018.57 1018.61 1018.85 1019.05 1019.05 1019.13 1019.25 1019.33 1019.37 1019.33 1019.25 1019.17 1019.17 1019.17 1019.01
1016.81 1016.93 1017.09 1017.13 1017.33 1017.41 1017.45 1017.41 1017.41 1017.37 1017.53 1017.69 1017.85 1017.97 1018.05 1018.25 1018.37 1018.41 1018.45 1018.45 1018.53 1018.65 1018.73 1018.73 1018.81 1018.81 1018.77 1018.65 1018.61 1018.57 1018.69 1018.73 1018.77 1018.81 1018.85 1018.81 1018.85 1018.77 1018.77 1018.77 1018.77 1018.77 1018.77 1018.73 1018.69 1018.61 1018.61 1018.61 1018.61 1018.61 1018.81 1019.05 1019.05 1019.17 1019.25 1019.37 1019.41 1019.37 1019.25 1019.21 1019.17 1019.05
1016.93 1017.09 1017.13 1017.21 1017.45 1017.49 1017.45 1017.41 1017.45 1017.57 1017.73 1017.77 1017.93 1018.05 1018.13 1018.25 1018.41 1018.49 1018.49 1018.53 1018.57 1018.65 1018.69 1018.73 1018.77 1018.81 1018.81 1018.81 1018.73 1018.69 1018.73 1018.77 1018.81 1018.85 1018.85 1018.89 1018.89 1018.89 1018.89 1018.89 1018.89 1018.89 1018.85 1018.89 1018.81 1018.73 1018.69 1018.65 1018.65 1018.65 1018.77 1018.89 1018.97 1019.05 1019.13 1019.25 1019.33 1019.37 1019.33 1019.25 1019.21 1019.09
1017.05 1017.13 1017.21 1017.33 1017.53 1017.53 1017.45 1017.45 1017.57 1017.69 1017.81 1017.77 1017.97 1018.09 1018.17 1018.29 1018.37 1018.45 1018.53 1018.53 1018.53 1018.65 1018.73 1018.77 1018.77 1018.81 1018.85 1018.89 1018.85 1018.81 1018.85 1018.85 1018.89 1018.89 1018.89 1019.01 1018.93 1018.97 1018.97 1018.97 1018.93 1018.89 1018.93 1018.97 1018.89 1018.81 1018.77 1018.85 1018.77 1018.73 1018.77 1018.81 1018.81 1018.89 1018.97 1019.05 1019.21 1019.25 1019.25 1019.25 1019.21 1019.17
1017.13 1017.17 1017.33 1017.53 1017.53 1017.49 1017.41 1017.49 1017.65 1017.73 1017.81 1017.85 1017.97 1018.05 1018.25 1018.37 1018.41 1018.45 1018.49 1018.49 1018.57 1018.61 1018.69 1018.81 1018.85 1018.85 1018.89 1018.89 1018.89 1018.89 1018.89 1018.93 1018.93 1018.93 1018.93 1018.97 1018.97 1019.01 1019.01 1018.97 1018.93 1018.89 1018.85 1018.85 1018.81 1018.77 1018.73 1018.77 1018.77 1018.69 1018.69 1018.73 1018.69 1018.81 1018.89 1018.97 1019.13 1019.25 1019.25 1019.25 1019.17 1019.13
1017.21 1017.25 1017.45 1017.53 1017.49 1017.53 1017.53 1017.61 1017.69 1017.81 1017.85 1017.85 1017.97 1018.13 1018.29 1018.45 1018.53 1018.53 1018.53 1018.57 1018.61 1018.69 1018.73 1018.77 1018.85 1018.93 1018.97 1018.93 1018.93 1018.97 1018.97 1019.05 1019.09 1019.01 1018.97 1019.01 1019.01 1018.97 1018.93 1018.89 1018.81 1018.73 1018.65 1018.65 1018.65 1018.65 1018.65 1018.73 1018.65 1018.61 1018.57 1018.65 1018.57 1018.57 1018.77 1018.93 1019.13 1019.21 1019.17 1019.17 1019.17 1019.09
1017.25 1017.37 1017.49 1017.57 1017.61 1017.57 1017.57 1017.61 1017.77 1017.93 1017.93 1017.93 1018.05 1018.17 1018.33 1018.41 1018.53 1018.57 1018.61 1018.61 1018.65 1018.69 1018.69 1018.77 1018.81 1018.89 1018.93 1018.93 1018.93 1018.97 1019.05 1019.09 1019.09 1019.05 1018.97 1018.97 1018.97 1018.89 1018.81 1018.73 1018.65 1018.53 1018.49 1018.45 1018.49 1018.49 1018.49 1018.57 1018.61 1018.45 1018.45 1018.57 1018.49 1018.41 1018.41 1018.61 1018.93 1019.17 1019.21 1019.13 1019.13 1019.09
1017.29 1017.41 1017.53 1017.61 1017.61 1017.65 1017.61 1017.65 1017.81 1017.97 1017.97 1018.01 1018.09 1018.25 1018.29 1018.29 1018.41 1018.57 1018.61 1018.65 1018.69 1018.73 1018.73 1018.73 1018.85 1018.93 1018.93 1018.97 1018.97 1018.97 1019.01 1019.05 1019.05 1018.97 1018.89 1018.85 1018.85 1018.77 1018.69 1018.57 1018.45 1018.41 1018.37 1018.41 1018.45 1018.45 1018.53 1018.53 1018.45 1018.45 1018.45 1018.53 1018.49 1018.33 1018.21 1018.37 1018.53 1018.77 1019.09 1019.37 1019.77 1019.69
1017.33 1017.49 1017.57 1017.69 1017.73 1017.77 1017.69 1017.73 1017.85 1018.01 1018.05 1018.05 1018.13 1018.25 1018.33 1018.33 1018.41 1018.49 1018.53 1018.61 1018.61 1018.65 1018.69 1018.77 1018.81 1018.93 1019.01 1019.05 1019.05 1019.01 1018.93 1018.89 1018.81 1018.77 1018.73 1018.61 1018.61 1018.65 1018.69 1018.65 1018.57 1018.57 1018.45 1018.45 1018.45 1018.45 1018.57 1018.65 1018.61 1018.53 1018.41 1018.49 1018.57 1018.49 1018.41 1018.33 1018.45 1018.61 1018.77 1019.05 1019.29 1019.45
1017.61 1017.73 1017.77 1017.77 1017.77 1017.77 1017.77 1017.73 1017.81 1017.89 1018.01 1018.05 1018.13 1018.25 1018.37 1018.37 1018.41 1018.41 1018.41 1018.45 1018.49 1018.53 1018.61 1018.69 1018.77 1018.85 1019.01 1019.01 1019.01 1018.93 1018.77 1018.65 1018.57 1018.49 1018.41 1018.37 1018.45 1018.65 1018.77 1018.81 1018.73 1018.77 1018.85 1018.77 1018.77 1018.69 1018.65 1018.73 1018.65 1018.61 1018.49 1018.45 1018.41 1018.37 1018.37 1018.41 1018.37 1018.41 1018.53 1018.77 1019.17 1019.21
1017.93 1017.93 1017.93 1017.85 1017.85 1017.81 1017.73 1017.73 1017.81 1017.89 1018.01 1018.13 1018.21 1018.29 1018.29 1018.33 1018.37 1018.37 1018.37 1018.37 1018.37 1018.41 1018.45 1018.53 1018.65 1018.73 1018.89 1018.89 1018.85 1018.73 1018.53 1018.37 1018.21 1018.17 1018.17 1018.25 1018.45 1018.57 1018.73 1018.85 1018.81 1018.73 1018.81 1018.85 1018.81 1018.77 1018.65 1018.61 1018.61 1018.49 1018.37 1018.33 1018.33 1018.33 1018.37 1018.41 1018.49 1018.49 1018.49 1018.65 1018.93 1019.21
1018.05 1017.97 1017.97 1017.97 1017.93 1017.89 1017.85 1017.85 1017.93 1018.01 1018.01 1018.09 1018.13 1018.17 1018.17 1018.17 1018.17 1018.21 1018.21 1018.29 1018.33 1018.37 1018.37 1018.45 1018.53 1018.61 1018.69 1018.65 1018.57 1018.49 1018.29 1018.05 1017.89 1017.97 1018.21 1018.41 1018.53 1018.53 1018.53 1018.61 1018.69 1018.65 1018.69 1018.81 1018.89 1018.93 1018.81 1018.65 1018.61 1018.49 1018.37 1018.29 1018.21 1018.21 1018.29 1018.37 1018.29 1018.09 1018.29 1018.53 1018.65 1018.81
1018.21 1018.17 1018.05 1017.93 1017.89 1017.93 1017.93 1017.97 1018.09 1018.17 1018.21 1018.17 1018.17 1018.21 1018.21 1018.25 1018.25 1018.29 1018.33 1018.33 1018.37 1018.45 1018.45 1018.49 1018.53 1018.53 1018.53 1018.49 1018.45 1018.33 1018.13 1017.77 1017.81 1018.17 1018.37 1018.41 1018.37 1018.37 1018.37 1018.41 1018.57 1018.65 1018.73 1018.77 1018.77 1018.69 1018.65 1018.65 1018.61 1018.53 1018.37 1018.17 1018.09 1018.01 1017.97 1018.01 1018.05 1018.09 1018.21 1018.25 1018.25 1018.29
1018.37 1018.25 1018.13 1018.05 1018.05 1018.09 1018.13 1018.29 1018.45 1018.49 1018.41 1018.29 1018.25 1018.29 1018.33 1018.37 1018.37 1018.41 1018.37 1018.37 1018.41 1018.49 1018.49 1018.49 1018.49 1018.41 1018.33 1018.29 1018.25 1018.13 1017.85 1017.65 1018.09 1018.37 1018.33 1018.25 1018.25 1018.29 1018.37 1018.41 1018.53 1018.61 1018.65 1018.61 1018.53 1018.49 1018.49 1018.53 1018.49 1018.45 1018.25 1018.05 1017.89 1017.81 1017.85 1017.69 1017.77 1017.89 1017.97 1018.05 1018.05 1018.05
1018.65 1018.37 1018.33 1018.33 1018.29 1018.37 1018.49 1018.45 1018.57 1018.69 1018.69 1018.57 1018.49 1018.33 1018.29 1018.33 1018.37 1018.37 1018.37 1018.41 1018.45 1018.45 1018.45 1018.41 1018.25 1018.13 1018.13 1018.05 1018.01 1017.89 1017.77 1017.77 1018.09 1018.25 1018.21 1018.17 1018.17 1018.21 1018.25 1018.33 1018.37 1018.37 1018.45 1018.49 1018.41 1018.33 1018.37 1018.41 1018.49 1018.37 1018.13 1018.01 1017.89 1017.77 1017.65 1017.61 1017.61 1017.61 1017.65 1017.61 1017.65 1017.77
1018.77 1018.61 1018.53 1018.49 1018.49 1018.41 1018.49 1018.57 1018.65 1018.69 1018.69 1018.65 1018.61 1018.57 1018.49 1018.33 1018.33 1018.37 1018.41 1018.45 1018.45 1018.41 1018.41 1018.37 1018.29 1018.17 1018.09 1018.05 1017.97 1017.85 1017.77 1017.85 1017.73 1017.89 1018.05 1018.05 1018.05 1018.09 1018.17 1018.25 1018.29 1018.33 1018.17 1018.29 1018.25 1018.09 1018.21 1018.41 1018.61 1018.69 1018.53 1018.09 1017.69 1017.57 1017.49 1017.41 1017.41 1017.33 1017.29 1017.41 1017.37 1017.45
1019.09 1018.97 1018.89 1018.69 1018.57 1018.61 1018.45 1018.33 1018.41 1018.53 1018.65 1018.69 1018.61 1018.61 1018.61 1018.57 1018.45 1018.45 1018.45 1018.49 1018.53 1018.45 1018.37 1018.33 1018.21 1018.09 1018.01 1017.93 1017.89 1017.81 1017.81 1017.77 1017.73 1017.85 1018.01 1018.13 1018.13 1018.13 1018.13 1018.21 1018.25 1018.37 1018.25 1018.09 1018.09 1017.85 1018.05 1018.13 1018.49 1018.41 1018.49 1018.61 1018.29 1018.05 1017.45 1017.57 1017.29 1017.05 1016.97 1016.93 1017.01 1017.13
1019.33 1019.17 1019.05 1018.85 1018.69 1018.53 1018.37 1018.25 1018.13 1018.17 1018.37 1018.41 1018.65 1018.61 1018.61 1018.61 1018.65 1018.53 1018.53 1018.41 1018.41 1018.41 1018.37 1018.33 1018.21 1018.09 1018.01 1017.89 1017.81 1017.81 1017.73 1017.77 1017.81 1017.81 1017.93 1018.05 1018.01 1017.97 1017.97 1018.01 1018.09 1018.13 1018.21 1018.33 1018.13 1017.81 1017.57 1017.69 1017.93 1018.37 1018.73 1018.61 1018.21 1018.13 1017.93 1017.41 1017.21 1016.89 1016.77 1016.77 1016.81 1016.85
1019.37 1019.33 1019.25 1019.09 1018.89 1018.65 1018.37 1018.29 1018.21 1018.17 1018.13 1018.29 1018.33 1018.53 1018.65 1018.81 1018.85 1018.81 1018.73 1018.65 1018.61 1018.45 1018.37 1018.33 1018.21 1018.09 1018.01 1017.89 1017.77 1017.69 1017.65 1017.57 1017.61 1017.69 1017.81 1017.89 1017.85 1017.73 1017.73 1017.81 1017.85 1017.97 1018.01 1018.05 1018.01 1017.81 1017.49 1017.41 1017.53 1017.49 1017.97 1018.25 1018.29 1018.21 1017.69 1017.09 1017.09 1016.73 1016.65 1016.85 1016.73 1016.73
1019.49 1019.45 1019.37 1019.17 1018.97 1018.93 1018.93 1018.85 1018.77 1018.85 1019.05 1019.21 1019.37 1019.25 1019.37 1019.53 1019.33 1019.21 1019.17 1018.93 1018.69 1018.61 1018.53 1018.45 1018.29 1018.21 1018.09 1017.97 1017.89 1017.77 1017.61 1017.49 1017.49 1017.53 1017.61 1017.69 1017.65 1017.65 1017.65 1017.69 1017.69 1017.73 1017.73 1017.69 1017.77 1017.77 1017.69 1017.33 1017.33 1017.41 1017.33 1017.29 1017.57 1017.61 1017.45 1017.17 1017.45 1017.21 1016.65 1016.29 1016.33 1016.41
1019.81 1019.73 1019.61 1019.45 1019.25 1019.13 1019.17 1019.09 1019.05 1019.17 1019.25 1019.37 1019.61 1019.57 1019.37 1019.25 1019.33 1019.29 1019.13 1019.01 1018.85 1018.65 1018.61 1018.57 1018.45 1018.37 1018.25 1018.09 1017.93 1017.77 1017.65 1017.53 1017.45 1017.45 1017.45 1017.57 1017.65 1017.65 1017.61 1017.57 1017.53 1017.57 1017.57 1017.53 1017.61 1017.69 1017.65 1017.41 1017.17 1017.09 1017.09 1017.05 1017.01 1016.81 1016.89 1017.45 1017.45 1017.09 1017.01 1016.45 1016.33 1016.17
1020.05 1019.93 1019.89 1019.77 1019.61 1019.45 1019.45 1019.45 1019.29 1019.29 1019.37 1019.41 1019.45 1019.53 1019.25 1019.17 1019.09 1019.09 1019.05 1019.05 1018.93 1018.81 1018.77 1018.69 1018.65 1018.53 1018.41 1018.25 1018.05 1017.89 1017.73 1017.61 1017.57 1017.49 1017.49 1017.53 1017.57 1017.45 1017.45 1017.37 1017.33 1017.33 1017.29 1017.29 1017.29 1017.33 1017.25 1017.21 1017.37 1017.01 1016.85 1016.81 1016.69 1016.53 1016.53 1016.61 1016.77 1017.09 1016.97 1016.89 1016.37 1016.09
1020.17 1020.09 1020.09 1019.97 1019.93 1019.85 1019.77 1019.77 1019.77 1019.73 1019.89 1019.85 1019.65 1019.61 1019.45 1019.21 1019.09 1018.93 1018.85 1018.77 1018.73 1018.77 1018.89 1018.93 1018.81 1018.65 1018.49 1018.33 1018.17 1018.05 1017.85 1017.73 1017.69 1017.61 1017.49 1017.45 1017.37 1017.29 1017.25 1017.21 1017.17 1017.09 1017.09 1017.01 1016.97 1016.93 1016.93 1016.89 1016.93 1016.85 1016.85 1016.69 1016.57 1016.49 1016.41 1016.37 1016.41 1016.61 1016.81 1016.85 1016.25 1016.17
1020.29 1020.33 1020.37 1020.37 1020.21 1020.17 1020.13 1020.13 1020.09 1020.13 1020.25 1020.29 1020.09 1020.01 1019.85 1019.69 1019.45 1019.25 1019.13 1018.93 1018.77 1018.77 1018.85 1018.89 1018.81 1018.77 1018.69 1018.49 1018.33 1018.13 1017.97 1017.85 1017.73 1017.61 1017.49 1017.37 1017.29 1017.21 1017.13 1017.05 1016.97 1016.89 1016.81 1016.81 1016.69 1016.65 1016.65 1016.61 1016.61 1016.49 1016.53 1016.45 1016.49 1016.29 1016.25 1016.13 1016.17 1016.25 1016.21 1016.25 1016.13 1015.81
1020.53 1020.73 1020.81 1020.77 1020.65 1020.57 1020.45 1020.45 1020.49 1020.49 1020.49 1020.53 1020.49 1020.45 1020.29 1020.21 1020.05 1019.85 1019.81 1019.65 1019.41 1019.29 1019.13 1018.97 1018.77 1018.73 1018.81 1018.73 1018.49 1018.33 1018.17 1018.01 1017.81 1017.73 1017.65 1017.53 1017.45 1017.29 1017.09 1016.93 1016.81 1016.73 1016.69 1016.69 1016.57 1016.45 1016.37 1016.25 1016.25 1016.17 1016.17 1016.17 1016.09 1016.05 1016.05 1016.01 1015.89 1015.85 1015.89 1015.81 1015.81 1015.53
1021.01 1021.17 1021.25 1021.25 1021.17 1021.09 1020.89 1020.77 1020.73 1020.69 1020.69 1020.73 1020.77 1020.73 1020.73 1020.73 1020.61 1020.57 1020.49 1020.41 1020.13 1019.85 1019.57 1019.29 1019.05 1018.93 1018.89 1018.77 1018.65 1018.53 1018.41 1018.33 1018.25 1018.13 1017.93 1017.77 1017.57 1017.37 1017.13 1016.97 1016.81 1016.69 1016.57 1016.45 1016.29 1016.17 1016.09 1016.01 1015.97 1015.85 1015.73 1015.69 1015.57 1015.49 1015.37 1015.37 1015.21 1015.17 1015.33 1015.21 1015.25 1015.09
1021.49 1021.53 1021.57 1021.61 1021.61 1021.57 1021.37 1021.21 1021.09 1020.97 1020.93 1020.93 1020.97 1020.97 1020.97 1020.97 1020.97 1021.01 1021.01 1020.93 1020.69 1020.49 1020.17 1019.93 1019.73 1019.57 1019.41 1019.29 1019.09 1018.93 1018.89 1018.89 1018.77 1018.57 1018.37 1018.09 1017.85 1017.61 1017.41 1017.17 1016.97 1016.77 1016.57 1016.41 1016.21 1016.05 1015.93 1015.81 1015.77 1015.69 1015.53 1015.25 1015.13 1015.05 1014.89 1014.69 1014.73 1014.77 1014.65 1014.61 1014.69 1014.77
1021.77 1021.77 1021.85 1021.89 1021.93 1021.81 1021.69 1021.57 1021.37 1021.25 1021.21 1021.17 1021.21 1021.21 1021.21 1021.21 1021.25 1021.29 1021.29 1021.25 1021.13 1020.97 1020.81 1020.61 1020.37 1020.25 1020.13 1020.01 1019.93 1019.85 1019.65 1019.49 1019.37 1019.21 1018.93 1018.65 1018.41 1018.09 1017.69 1017.29 1016.93 1016.69 1016.49 1016.29 1016.09 1015.93 1015.69 1015.49 1015.33 1015.13 1015.01 1014.89 1014.69 1014.45 1014.25 1014.25 1014.25 1014.17 1014.13 1014.29 1014.41 1014.45
1021.89 1021.97 1022.01 1022.13 1022.17 1022.09 1022.05 1021.93 1021.77 1021.69 1021.61 1021.53 1021.61 1021.69 1021.73 1021.65 1021.65 1021.61 1021.57 1021.49 1021.41 1021.21 1021.09 1020.93 1020.77 1020.61 1020.49 1020.49 1020.57 1020.33 1020.05 1019.93 1019.81 1019.69 1019.49 1019.29 1019.09 1018.73 1018.41 1017.93 1017.29 1016.73 1016.37 1016.05 1015.85 1015.65 1015.49 1015.37 1015.13 1014.97 1014.81 1014.65 1014.41 1014.13 1013.93 1013.85 1013.81 1013.69 1013.65 1013.73 1013.85 1013.81
1022.13 1022.21 1022.25 1022.33 1022.41 1022.41 1022.41 1022.37 1022.25 1022.13 1022.05 1022.01 1022.01 1022.09 1022.17 1022.17 1022.05 1021.93 1021.89 1021.81 1021.69 1021.53 1021.37 1021.25 1021.09 1020.89 1020.73 1020.81 1020.97 1020.73 1020.49 1020.41 1020.25 1020.05 1019.89 1019.73 1019.57 1019.29 1018.97 1018.41 1017.69 1017.21 1016.81 1016.25 1015.89 1015.53 1015.25 1015.05 1014.89 1014.69 1014.53 1014.29 1014.09 1013.77 1013.61 1013.49 1013.37 1013.25 1013.17 1013.17 1013.25 1013.21
1022.37 1022.45 1022.61 1022.69 1022.65 1022.65 1022.65 1022.65 1022.61 1022.53 1022.45 1022.29 1022.29 1022.41 1022.53 1022.53 1022.41 1022.29 1022.17 1022.09 1021.97 1021.81 1021.61 1021.45 1021.37 1021.13 1021.01 1021.05 1021.21 1021.05 1020.97 1020.81 1020.61 1020.37 1020.17 1019.97 1019.81 1019.57 1019.17 1018.69 1018.17 1017.61 1017.21 1016.85 1016.49 1015.93 1015.33 1014.97 1014.61 1014.37 1014.09 1013.89 1013.73 1013.49 1013.29 1013.09 1012.93 1012.81 1012.73 1012.73 1012.69 1012.73
Wind_Speed
4 4 3 3 3 3 4 9 6 7 7 7 7 8 7 8 6 5 3 4 7 5 4 4 4 2 3 2 2 3 4 4 3 3 3 3 2 1 1 2 2 3 3 4 4 4 5 7 7 4 6 10 9 5 4 3 3 3 3 4 4 4
3 4 3 3 2 2 2 5 2 2 2 4 6 6 4 2 4 1 5 4 3 3 3 3 2 3 2 1 1 1 1 1 2 2 2 2 1 1 1 2 3 3 4 4 5 3 3 8 7 5 4 8 7 5 4 4 3 3 3 3 3 5
3 3 3 3 2 2 3 2 2 2 1 3 1 4 3 2 3 3 3 3 2 2 2 1 1 2 1 1 1 1 1 0 1 1 2 1 1 1 1 1 3 5 5 7 4 3 3 6 3 4 5 3 4 5 5 4 3 3 3 3 3 8
3 3 3 3 2 4 3 2 2 1 2 3 4 4 3 3 3 3 3 3 2 2 2 1 3 6 5 0 1 2 1 1 1 2 2 3 4 3 2 3 3 4 3 3 3 3 4 4 3 2 2 3 3 5 5 5 5 4 5 3 4 10
3 3 3 4 4 3 2 2 1 1 3 3 3 3 3 4 3 3 3 2 2 1 2 2 3 2 2 0 0 0 1 2 2 2 4 1 2 3 3 3 2 3 2 2 3 4 3 2 5 3 2 3 3 3 4 4 5 5 5 4 4 10
4 3 3 3 3 4 3 1 1 1 2 2 3 2 3 2 2 2 2 3 2 1 1 1 2 3 2 1 0 0 1 2 2 1 2 1 2 2 2 3 3 3 3 2 2 3 3 3 2 4 2 2 2 3 2 3 4 5 5 4 4 12
4 3 3 3 3 2 2 1 1 1 2 2 2 2 1 2 2 2 2 2 2 1 0 0 1 1 2 1 1 0 0 1 1 1 2 1 1 1 2 2 3 4 4 4 4 3 4 3 4 1 3 2 3 3 3 3 4 4 5 5 5 12
3 3 2 3 3 3 2 1 1 1 1 1 3 1 1 1 1 2 1 0 1 1 0 0 1 1 1 1 2 1 0 0 0 1 0 0 1 1 1 1 2 3 3 3 4 4 4 4 4 4 1 2 3 5 5 4 4 4 4 5 4 9
3 3 3 3 3 3 2 1 1 1 0 1 2 1 1 1 1 1 1 1 0 1 1 1 1 2 0 1 2 2 1 1 1 0 0 1 0 1 1 1 2 3 2 2 3 4 3 4 4 4 4 2 3 4 4 5 5 5 4 5 5 6
3 3 2 3 3 3 2 3 1 1 1 1 1 1 1 0 1 1 1 1 1 1 1 1 2 2 1 2 1 2 2 2 1 0 0 1 2 2 1 1 1 2 2 1 2 3 2 2 4 3 2 2 2 5 5 5 5 5 5 5 5 4
1 2 3 3 2 3 3 2 2 2 1 2 1 0 1 1 0 1 2 2 1 2 2 2 2 2 2 2 2 2 2 1 2 1 0 1 1 1 1 2 3 3 3 2 2 2 1 2 3 4 2 2 2 3 5 4 4 4 5 5 5 4
1 2 3 2 2 2 2 2 2 2 2 1 0 0 0 1 2 2 2 1 1 1 2 2 2 2 2 2 2 2 2 1 2 2 2 0 1 1 2 3 3 2 2 2 2 2 2 2 4 4 2 2 1 1 3 3 3 5 5 5 5 5
1 2 3 2 2 1 2 2 2 1 0 0 0 0 0 0 1 1 1 0 0 1 2 3 3 2 3 2 2 2 1 1 1 2 2 1 0 1 1 2 3 2 3 3 3 3 2 2 4 5 3 2 3 2 4 5 4 4 5 5 5 5
1 0 1 2 1 1 1 1 0 2 1 0 0 0 1 1 1 0 0 0 1 2 2 3 2 3 2 2 3 3 3 2 0 1 2 2 1 2 2 3 3 3 4 2 4 4 2 4 4 4 4 1 2 3 3 4 6 5 1 1 3 4
0 0 1 1 1 1 1 0 0 2 1 1 2 1 1 2 1 1 1 1 2 2 2 3 2 2 2 2 3 3 3 2 0 1 2 2 3 2 2 4 3 3 4 5 4 5 3 4 4 5 5 1 2 1 1 4 4 3 3 3 5 1
1 1 1 1 2 2 2 0 1 0 2 1 1 1 1 1 1 1 1 1 2 2 3 3 2 2 3 3 3 4 4 3 2 2 3 3 2 2 2 2 3 3 4 5 4 6 3 4 4 5 4 3 3 2 2 2 5 4 4 4 4 5
1 1 1 1 2 2 2 3 2 2 1 1 0 1 1 1 1 0 1 2 1 2 2 3 3 3 3 4 4 4 5 4 4 4 4 3 2 1 1 2 3 3 3 4 4 5 6 4 5 5 5 3 1 2 4 2 1 3 4 4 5 5
1 2 2 1 1 2 2 2 3 3 3 3 2 1 2 2 2 2 2 2 2 1 1 3 4 4 4 4 4 4 5 6 5 4 3 1 2 1 2 3 4 3 3 3 3 4 6 5 4 5 5 3 1 2 2 5 5 5 6 6 6 7
3 3 2 1 2 2 1 2 2 3 3 3 2 1 1 2 4 3 2 2 2 2 2 2 2 3 4 4 4 4 5 7 5 2 1 2 3 3 3 4 4 3 2 4 5 4 5 4 5 5 5 6 4 6 5 6 6 6 6 8 8 7
4 3 2 3 3 3 1 1 2 3 3 2 2 2 1 1 1 1 2 2 2 2 1 1 1 2 2 3 4 4 6 6 0 1 2 3 4 4 4 5 5 5 5 4 5 5 4 4 4 5 6 6 5 4 6 6 6 6 6 6 6 6
5 5 5 5 4 2 2 2 1 1 1 2 2 3 2 2 1 1 2 2 2 2 1 1 0 0 0 2 3 4 5 3 0 2 4 4 2 3 3 4 3 3 5 5 4 4 4 3 4 5 3 5 5 5 6 7 7 6 7 6 6 6
6 7 7 6 4 3 2 2 2 1 0 1 1 3 5 5 4 3 2 2 2 2 0 0 0 0 1 3 4 5 4 2 2 1 2 2 3 4 3 3 3 4 4 5 4 3 3 3 2 3 5 5 3 3 7 7 8 8 8 7 8 8
6 6 6 5 4 3 2 2 1 0 1 0 1 0 1 2 3 3 2 1 1 2 2 2 1 1 2 3 3 4 4 2 3 3 3 3 3 5 4 5 5 5 5 2 4 2 3 6 5 1 1 2 5 3 0 3 5 8 9 9 8 9
5 6 6 6 6 5 4 3 3 3 1 2 2 1 0 0 1 2 5 3 2 2 2 2 2 2 2 3 3 4 4 3 3 3 3 4 3 4 4 4 4 5 4 6 4 4 6 6 6 2 5 4 2 1 7 5 7 6 8 9 9 10
6 6 5 6 6 6 7 7 5 3 4 4 3 5 6 7 6 5 5 6 6 3 3 3 3 3 3 4 4 5 5 4 3 3 4 4 5 5 5 5 6 5 5 5 7 4 3 6 7 7 7 4 4 3 5 4 2 4 7 8 10 11
7 6 6 7 7 6 6 6 7 7 7 6 6 7 8 7 7 7 6 3 5 5 4 3 3 3 3 3 4 4 5 4 3 3 2 3 4 4 5 5 5 5 6 5 6 6 6 3 6 6 9 8 8 9 7 2 1 4 1 8 7 10
6 6 6 7 8 6 6 6 7 7 6 6 4 3 3 3 4 4 3 5 5 6 7 7 7 5 5 4 4 4 4 3 4 3 3 3 4 5 6 6 5 5 5 5 5 7 7 7 5 6 8 9 10 9 8 4 6 6 7 2 6 8
5 6 6 6 8 7 7 7 7 8 7 7 7 6 7 6 4 4 5 5 4 6 7 7 7 7 6 6 6 6 5 3 4 4 3 4 5 5 4 4 4 5 6 6 7 8 8 6 6 5 5 8 10 11 11 11 10 10 8 8 4 4
6 5 6 7 7 7 6 6 6 6 6 6 6 6 6 6 7 7 8 8 7 7 6 6 7 7 7 8 7 7 7 5 4 5 3 4 5 5 5 6 6 6 5 6 6 7 7 7 6 8 7 6 7 7 8 9 9 9 8 7 9 6
8 8 7 6 6 7 6 5 6 6 6 6 6 5 6 8 8 8 9 10 9 9 8 7 6 6 8 9 8 7 7 7 6 5 5 5 5 5 6 6 6 7 7 7 6 6 7 6 7 8 8 8 7 7 7 7 7 7 8 10 11 6
9 8 8 7 6 6 6 5 5 5 6 6 6 6 7 8 8 9 9 10 9 8 8 8 8 8 8 8 8 8 8 8 8 9 8 9 8 8 7 6 6 7 7 8 7 7 8 9 8 9 9 8 9 9 9 8 8 7 7 7 7 10
8 7 7 7 7 6 5 5 5 6 7 6 6 6 7 7 8 8 9 8 7 7 8 7 9 9 9 11 10 9 11 11 11 10 10 9 9 9 9 8 8 7 7 8 9 9 7 8 8 8 9 8 9 8 9 9 8 9 8 9 9 10
6 5 6 6 6 6 6 6 5 6 5 5 6 6 6 6 6 6 6 7 7 7 8 8 8 9 11 13 11 12 12 11 10 10 10 10 9 10 8 8 8 9 8 8 7 7 7 8 9 10 9 9 10 10 10 9 9 8 9 8 8 9
4 4 4 5 5 5 6 5 5 6 6 6 6 6 6 6 6 5 5 6 6 6 6 6 7 8 8 9 10 9 9 10 10 10 10 11 11 11 11 10 9 9 9 8 8 10 11 11 11 13 11 10 11 11 10 9 9 10 9 9 8 9
5 4 4 4 4 5 6 7 7 7 7 7 7 7 7 7 7 7 6 6 6 6 6 7 7 7 7 8 10 9 9 9 9 9 10 10 10 10 11 10 9 10 8 8 9 9 9 10 10 10 10 10 10 9 9 10 10 9 8 8 9 9
4 4 4 4 5 5 6 6 7 7 7 7 7 6 7 6 6 6 6 6 6 6 6 6 6 7 6 8 9 9 9 9 8 8 8 9 9 8 10 9 8 9 10 9 10 11 10 10 11 12 12 12 12 11 10 11 10 9 9 8 8 9
5 5 5 5 5 6 6 7 7 7 7 7 8 8 6 7 7 7 6 6 6 6 6 5 6 6 7 8 9 9 8 8 8 8 9 9 9 9 9 8 9 9 10 10 10 11 10 10 10 10 10 11 11 10 10 10 11 10 10 8 9 9
Wind_Direction
132 131 129 128 131 138 159 159 153 155 161 157 157 154 151 152 142 140 115 85 54 56 49 39 20 9 26 63 103 130 131 132 127 111 102 97 119 92 51 34 13 9 352 7 359 14 19 42 47 76 108 124 111 95 120 122 133 135 149 150 144 168
130 132 130 124 134 143 146 142 111 135 137 160 160 151 137 128 125 70 102 72 64 67 71 44 20 12 24 16 16 170 121 99 118 103 88 99 108 103 10 10 355 331 337 343 357 24 19 53 55 92 115 133 119 128 127 135 134 151 159 165 159 176
135 141 135 133 126 127 94 86 99 89 77 99 150 114 58 84 71 75 76 75 67 69 74 76 331 227 198 140 337 268 193 127 51 84 65 45 56 271 325 336 336 332 340 345 1 7 17 75 49 58 56 95 124 130 134 137 155 170 172 193 167 177
151 153 148 139 112 92 109 114 123 88 77 59 50 64 74 77 69 70 84 81 60 55 52 11 8 28 35 58 340 318 237 247 22 52 72 25 356 329 307 321 325 341 354 358 357 354 349 81 92 55 51 108 137 146 152 164 169 178 180 195 195 181
154 168 154 156 136 125 121 125 113 87 71 65 73 62 62 70 74 82 93 82 74 47 357 3 9 54 70 5 99 356 10 32 29 26 38 22 2 355 9 337 348 348 353 353 349 341 355 17 102 83 62 118 146 171 171 168 174 175 188 200 202 189
163 178 168 144 127 160 139 127 108 95 89 75 85 80 77 72 71 92 99 111 106 70 341 359 7 346 5 42 37 2 19 19 18 2 357 31 7 3 353 340 333 327 333 353 340 327 329 326 93 119 116 128 163 187 208 193 183 181 190 201 218 192
170 170 162 121 110 99 113 123 103 103 125 101 82 96 82 79 93 100 106 126 132 131 132 16 353 337 324 354 337 46 22 27 8 331 325 16 349 348 355 342 330 324 330 344 339 338 338 345 338 59 136 158 178 201 196 208 208 193 194 201 221 197
160 149 129 113 107 97 94 105 187 205 105 146 120 148 96 90 103 110 120 223 92 77 136 187 257 316 287 351 285 299 95 117 147 318 343 10 258 311 315 282 297 300 320 337 331 328 333 326 320 315 299 163 181 196 198 197 216 212 203 203 214 202
137 122 115 110 105 99 116 128 149 95 94 231 127 176 112 78 102 134 164 214 147 192 248 237 261 251 275 251 294 306 315 265 182 157 59 358 317 287 324 325 293 295 303 300 297 302 309 310 316 315 305 293 190 194 194 193 202 211 212 207 209 219
127 117 112 97 103 115 156 163 160 157 203 233 170 122 120 111 136 134 177 199 197 173 247 243 259 268 217 254 270 301 303 292 287 175 98 305 317 339 334 5 1 352 6 349 294 287 329 321 309 297 292 258 199 190 193 189 199 207 206 208 215 229
107 132 82 98 120 154 175 176 164 170 239 266 305 171 134 129 114 222 223 206 207 213 224 255 245 259 259 250 251 243 257 285 307 299 178 233 245 267 290 287 284 292 302 286 274 241 270 286 288 291 275 246 262 170 187 192 200 208 208 212 215 212
89 96 110 115 140 163 190 196 177 157 207 275 340 350 29 123 214 241 238 222 242 296 252 252 241 240 238 250 250 244 258 255 275 301 310 219 213 245 235 251 265 265 257 259 277 286 260 262 277 269 270 249 291 148 161 172 207 213 214 212 211 209
71 89 120 145 154 172 209 202 166 139 100 334 54 103 317 260 207 214 242 88 348 249 261 257 261 254 256 252 265 282 280 257 259 264 271 274 191 212 242 255 263 253 275 279 287 281 266 257 275 280 272 198 204 208 155 159 196 228 234 220 218 210
62 74 128 115 121 140 253 266 105 89 106 112 87 341 298 317 295 228 145 172 206 256 256 264 266 279 272 291 312 307 295 297 252 220 204 191 191 216 245 270 263 276 266 256 260 246 261 284 268 274 278 204 210 228 198 177 186 198 214 354 328 293
216 15 31 38 37 7 339 314 61 99 113 160 167 160 178 237 249 225 179 201 206 222 240 245 242 244 275 280 288 290 287 272 241 168 177 193 193 210 223 260 278 286 302 305 301 304 290 273 280 285 290 333 152 228 219 186 156 160 155 166 207 140
1 23 26 20 16 15 10 68 83 110 136 172 203 188 197 202 223 235 239 211 198 218 231 235 235 219 235 240 248 261 263 268 244 207 204 204 199 215 235 265 272 260 287 291 307 297 303 294 294 289 289 284 220 211 159 159 172 168 161 164 175 204
353 350 357 6 13 4 13 12 24 29 47 114 113 321 268 256 175 185 288 276 246 221 228 226 226 221 215 223 229 242 259 248 236 230 237 238 234 240 217 256 276 257 234 271 290 288 297 288 287 284 299 317 353 145 154 163 270 181 174 184 177 196
354 336 347 330 342 355 356 25 20 16 9 10 6 22 355 2 337 324 315 296 291 264 243 223 220 210 212 220 225 233 244 243 237 234 238 260 276 260 226 223 248 242 233 241 265 264 277 286 283 286 283 269 175 198 178 148 214 201 191 190 193 198
14 345 343 36 21 35 22 11 27 30 5 341 351 346 326 340 331 326 300 276 275 255 247 255 238 215 208 215 219 229 238 238 230 227 211 221 231 216 219 229 239 259 226 235 242 241 241 255 270 276 279 264 222 196 198 199 187 197 189 199 195 191
6 346 357 27 46 25 15 342 322 360 358 338 331 344 359 279 280 258 251 260 285 279 252 226 213 224 238 241 231 233 240 246 117 32 279 230 230 222 217 227 235 252 250 240 229 240 245 252 256 247 257 260 245 213 194 203 192 183 191 201 195 180
17 25 31 22 14 35 12 344 61 69 319 287 331 336 354 349 329 261 261 230 230 239 263 306 325 103 211 261 247 245 251 273 101 196 245 264 301 296 272 250 244 219 237 254 240 209 237 230 270 284 256 256 256 229 208 197 201 197 193 200 196 192
25 30 26 19 15 32 355 282 271 269 203 291 1 7 350 349 344 339 318 297 306 300 245 205 224 208 246 243 264 261 257 275 275 219 229 263 283 290 295 282 260 263 215 240 262 184 203 143 256 258 296 307 286 231 219 207 207 208 202 199 198 202
38 36 25 11 19 15 330 354 92 233 152 218 216 149 290 281 309 323 323 303 284 300 311 319 315 295 276 264 257 267 264 220 241 261 264 260 274 278 275 278 280 274 286 234 265 240 189 184 262 229 272 325 289 315 317 229 245 229 208 204 197 202
46 42 32 18 18 12 5 3 32 66 121 123 92 354 94 173 337 346 1 334 323 327 323 307 300 290 289 299 294 278 275 246 234 212 229 252 252 263 261 263 253 253 247 280 260 255 200 200 214 250 290 214 264 218 285 239 223 234 214 211 205 209
45 42 35 28 20 15 19 18 8 39 48 31 41 35 36 28 21 16 19 18 5 353 350 347 332 326 325 316 310 299 289 274 259 219 203 233 258 263 262 251 250 250 239 239 265 266 228 209 218 199 234 271 282 256 234 262 180 262 195 213 215 212
43 35 28 27 26 25 25 31 22 27 29 27 25 19 26 15 5 13 10 344 12 24 22 30 13 340 322 313 305 293 284 278 274 281 255 248 265 279 271 264 249 249 256 245 261 280 280 235 227 234 231 225 244 267 282 302 30 294 294 223 212 211
45 41 28 29 26 29 29 29 38 35 35 40 28 31 15 23 23 358 12 18 16 20 23 21 13 11 357 342 322 312 299 285 285 276 268 259 263 262 265 259 260 244 246 256 254 260 257 269 259 234 237 240 245 253 250 257 253 286 275 225 221 207
50 52 39 35 35 27 37 22 29 34 22 19 21 4 8 6 5 5 24 26 23 29 17 14 16 12 8 6 358 345 332 305 292 284 273 260 262 265 264 264 248 247 252 245 248 252 259 254 253 264 213 243 239 244 251 247 244 251 264 272 242 219
52 50 45 48 50 36 36 35 38 38 32 15 13 15 4 5 6 3 13 8 16 21 20 14 13 11 6 4 4 353 346 338 308 292 271 264 264 272 275 280 283 272 258 255 245 251 248 250 250 264 273 255 254 251 249 244 243 231 241 258 260 216
38 31 22 27 49 56 42 35 45 42 44 31 22 12 12 11 9 5 6 4 7 7 2 4 11 14 8 2 358 355 353 351 345 328 318 302 301 295 289 285 280 277 268 261 250 245 250 264 262 263 255 262 257 258 243 242 228 227 231 232 254 244
35 32 24 22 20 39 52 47 49 49 49 44 28 25 24 20 11 12 9 2 2 353 353 357 2 7 10 1 360 2 360 360 2 2 356 352 340 323 311 303 298 289 282 273 270 260 254 249 253 254 253 250 255 252 253 249 244 229 229 235 236 243
33 29 28 25 25 18 26 45 49 52 56 47 39 36 35 28 21 18 9 3 351 350 355 357 2 1 6 6 6 8 9 8 4 355 354 347 343 340 332 323 311 298 284 271 264 263 262 262 258 260 256 250 255 255 249 244 245 238 234 237 230 240
43 32 31 23 23 23 36 35 36 52 55 51 49 43 36 35 25 23 9 2 357 360 355 359 359 0 11 8 9 9 9 6 359 355 347 346 338 333 325 315 310 306 298 290 280 274 275 274 272 270 271 261 257 257 254 249 248 248 240 240 233 245
55 39 34 28 16 27 33 35 39 45 47 45 43 35 32 30 24 26 17 8 0 355 354 356 356 12 16 18 18 9 4 2 2 358 355 353 349 342 335 323 311 304 301 294 286 277 271 269 265 260 258 262 258 253 252 244 244 245 236 232 232 234
65 34 39 26 23 28 26 27 32 39 37 38 37 34 28 27 28 25 21 13 3 2 6 5 4 14 12 37 21 6 3 2 358 360 360 357 352 346 340 328 320 308 296 285 282 282 281 285 287 289 284 279 278 270 264 257 249 244 234 227 229 229
68 44 32 29 23 26 24 30 32 38 36 41 45 42 37 29 29 26 26 16 9 8 9 8 4 8 1 48 21 6 4 3 358 359 1 356 350 343 335 325 328 334 327 324 306 294 284 274 270 269 270 272 269 265 263 263 256 249 240 228 221 226
52 42 32 27 31 32 41 39 33 34 32 42 50 46 39 35 33 32 31 25 17 12 7 12 9 6 4 49 22 16 7 358 356 352 353 352 348 342 338 334 337 332 331 330 325 318 305 291 280 273 266 263 265 272 270 264 257 249 243 229 225 222